TimePDT,TemperatureF,Dew PointF,Humidity,Sea Level PressureIn,VisibilityMPH,Wind Direction,Wind SpeedMPH,Gust SpeedMPH,PrecipitationIn,Events,Conditions,WindDirDegrees,DateUTC
12:15 AM,44.6,39.2,81,29.96,10.0,WNW,9.2,-,N/A,,Mostly Cloudy,300,2014-03-18 07:15:00
12:35 AM,44.6,39.2,81,29.97,10.0,NW,4.6,-,N/A,,Mostly Cloudy,320,2014-03-18 07:35:00
12:55 AM,41.0,39.2,93,29.98,10.0,SSE,3.5,-,N/A,,Overcast,160,2014-03-18 07:55:00
1:15 AM,44.6,39.2,81,29.98,10.0,Calm,Calm,-,N/A,,Overcast,0,2014-03-18 08:15:00
1:35 AM,44.6,39.2,81,29.98,10.0,NNE,3.5,-,N/A,,Overcast,20,2014-03-18 08:35:00
1:55 AM,42.8,39.2,87,29.95,10.0,WNW,18.4,-,N/A,,Scattered Clouds,290,2014-03-18 08:55:00
2:15 AM,42.8,37.4,81,29.95,10.0,WNW,11.5,-,N/A,,Clear,300,2014-03-18 09:15:00
2:35 AM,41.0,37.4,87,29.96,10.0,Calm,Calm,-,N/A,,Clear,0,2014-03-18 09:35:00
2:55 AM,41.0,37.4,87,29.96,10.0,SW,8.1,-,N/A,,Clear,220,2014-03-18 09:55:00
3:15 AM,41.0,39.2,93,29.96,9.0,West,8.1,-,N/A,,Clear,270,2014-03-18 10:15:00
3:35 AM,41.0,39.2,93,29.95,8.0,West,4.6,-,N/A,,Clear,270,2014-03-18 10:35:00
3:55 AM,39.2,37.4,93,29.95,9.0,WNW,3.5,-,N/A,,Clear,300,2014-03-18 10:55:00
4:15 AM,39.2,37.4,93,29.95,9.0,Calm,Calm,-,N/A,,Clear,0,2014-03-18 11:15:00
4:35 AM,39.2,37.4,93,29.95,8.0,Calm,Calm,-,N/A,,Clear,0,2014-03-18 11:35:00
4:55 AM,37.4,35.6,93,29.95,8.0,Calm,Calm,-,N/A,,Scattered Clouds,0,2014-03-18 11:55:00
5:15 AM,35.6,35.6,100,29.95,8.0,Calm,Calm,-,N/A,,Mostly Cloudy,0,2014-03-18 12:15:00
5:35 AM,33.8,32.0,93,29.94,8.0,SE,3.5,-,N/A,,Partly Cloudy,130,2014-03-18 12:35:00
5:55 AM,32.0,32.0,100,29.95,10.0,East,4.6,-,N/A,,Clear,90,2014-03-18 12:55:00
6:15 AM,32.0,32.0,100,29.95,8.0,SE,3.5,-,N/A,,Clear,140,2014-03-18 13:15:00
6:35 AM,32.0,30.2,93,29.95,10.0,ESE,6.9,-,N/A,,Clear,120,2014-03-18 13:35:00
6:55 AM,32.0,32.0,100,29.95,8.0,ESE,5.8,-,N/A,,Clear,120,2014-03-18 13:55:00
7:15 AM,32.0,32.0,100,29.95,5.0,ESE,6.9,-,N/A,,Clear,120,2014-03-18 14:15:00
7:35 AM,33.8,32.0,93,29.96,6.0,SE,10.4,-,N/A,,Clear,130,2014-03-18 14:35:00
7:55 AM,37.4,33.8,87,29.96,7.0,ESE,11.5,-,N/A,,Clear,110,2014-03-18 14:55:00
8:15 AM,39.2,33.8,81,29.97,8.0,ESE,11.5,-,N/A,,Clear,120,2014-03-18 15:15:00
8:35 AM,44.6,32.0,61,29.97,9.0,ESE,10.4,-,N/A,,Clear,120,2014-03-18 15:35:00
8:55 AM,46.4,26.6,46,29.97,9.0,East,10.4,-,N/A,,Clear,100,2014-03-18 15:55:00
9:15 AM,50.0,19.4,30,29.98,8.0,SE,18.4,24.2,N/A,,Clear,130,2014-03-18 16:15:00
9:35 AM,50.0,17.6,28,29.99,10.0,ESE,16.1,23.0,N/A,,Clear,120,2014-03-18 16:35:00
9:55 AM,51.8,15.8,24,29.99,8.0,SE,23.0,-,N/A,,Clear,130,2014-03-18 16:55:00
10:15 AM,51.8,14.0,22,29.99,7.0,SE,19.6,27.6,N/A,,Clear,130,2014-03-18 17:15:00
10:35 AM,53.6,14.0,21,30.00,9.0,ESE,18.4,24.2,N/A,,Clear,120,2014-03-18 17:35:00
10:55 AM,53.6,14.0,21,30.00,7.0,ESE,20.7,27.6,N/A,,Clear,120,2014-03-18 17:55:00
11:15 AM,53.6,14.0,21,30.00,8.0,ESE,20.7,26.5,N/A,,Clear,120,2014-03-18 18:15:00
11:35 AM,53.6,12.2,19,30.00,7.0,SE,23.0,28.8,N/A,,Clear,130,2014-03-18 18:35:00
11:55 AM,55.4,12.2,18,30.00,8.0,ESE,19.6,28.8,N/A,,Clear,120,2014-03-18 18:55:00
12:15 PM,55.4,12.2,18,30.00,7.0,SE,17.3,26.5,N/A,,Clear,130,2014-03-18 19:15:00
12:35 PM,55.4,12.2,18,29.99,8.0,SE,17.3,26.5,N/A,,Clear,140,2014-03-18 19:35:00
12:55 PM,57.2,14.0,18,29.98,8.0,SE,18.4,25.3,N/A,,Clear,130,2014-03-18 19:55:00
1:15 PM,57.2,14.0,18,29.98,8.0,ESE,21.9,26.5,N/A,,Clear,120,2014-03-18 20:15:00
1:35 PM,57.2,14.0,18,29.97,8.0,SE,19.6,25.3,N/A,,Clear,130,2014-03-18 20:35:00
1:55 PM,57.2,14.0,18,29.96,9.0,SE,18.4,26.5,N/A,,Clear,130,2014-03-18 20:55:00
2:15 PM,57.2,14.0,18,29.96,8.0,SE,18.4,25.3,N/A,,Clear,130,2014-03-18 21:15:00
2:35 PM,57.2,12.2,17,29.95,8.0,SE,19.6,24.2,N/A,,Clear,130,2014-03-18 21:35:00
2:55 PM,59.0,10.4,15,29.96,9.0,SE,16.1,23.0,N/A,,Clear,130,2014-03-18 21:55:00
3:15 PM,59.0,10.4,15,29.95,9.0,ESE,17.3,23.0,N/A,,Clear,120,2014-03-18 22:15:00
3:35 PM,59.0,10.4,15,29.95,10.0,ESE,15.0,24.2,N/A,,Clear,110,2014-03-18 22:35:00
3:55 PM,59.0,8.6,14,29.96,10.0,ESE,16.1,20.7,N/A,,Clear,120,2014-03-18 22:55:00
4:15 PM,59.0,8.6,14,29.96,9.0,ESE,16.1,21.9,N/A,,Clear,110,2014-03-18 23:15:00
4:35 PM,59.0,8.6,14,29.95,10.0,SE,12.7,20.7,N/A,,Clear,130,2014-03-18 23:35:00
4:55 PM,57.2,8.6,14,29.96,10.0,ESE,12.7,18.4,N/A,,Clear,120,2014-03-18 23:55:00
5:15 PM,57.2,8.6,14,29.96,10.0,SE,15.0,20.7,N/A,,Clear,130,2014-03-19 00:15:00
5:35 PM,57.2,8.6,14,29.96,10.0,SE,13.8,-,N/A,,Clear,140,2014-03-19 00:35:00
5:55 PM,57.2,6.8,13,29.96,10.0,SE,13.8,-,N/A,,Clear,130,2014-03-19 00:55:00
6:15 PM,55.4,6.8,14,29.97,10.0,ESE,12.7,17.3,N/A,,Clear,120,2014-03-19 01:15:00
6:35 PM,55.4,6.8,14,29.97,10.0,ESE,10.4,-,N/A,,Clear,120,2014-03-19 01:35:00
6:55 PM,53.6,8.6,16,29.98,10.0,ESE,9.2,-,N/A,,Clear,120,2014-03-19 01:55:00
7:15 PM,51.8,6.8,16,29.98,10.0,ESE,8.1,-,N/A,,Clear,110,2014-03-19 02:15:00
7:35 PM,46.4,10.4,23,29.98,10.0,SE,8.1,-,N/A,,Clear,130,2014-03-19 02:35:00
7:55 PM,46.4,10.4,23,29.99,10.0,ESE,9.2,-,N/A,,Clear,120,2014-03-19 02:55:00
8:15 PM,44.6,10.4,25,30.00,10.0,SE,9.2,-,N/A,,Clear,130,2014-03-19 03:15:00
8:35 PM,44.6,10.4,25,30.01,10.0,ESE,8.1,-,N/A,,Clear,110,2014-03-19 03:35:00
8:55 PM,46.4,8.6,22,30.02,10.0,East,9.2,-,N/A,,Clear,100,2014-03-19 03:55:00
9:15 PM,48.2,6.8,19,30.02,10.0,ESE,9.2,-,N/A,,Clear,110,2014-03-19 04:15:00
9:35 PM,42.8,8.6,25,30.03,10.0,ESE,9.2,-,N/A,,Clear,120,2014-03-19 04:35:00
9:55 PM,41.0,8.6,26,30.04,10.0,ESE,10.4,-,N/A,,Clear,120,2014-03-19 04:55:00
10:15 PM,44.6,8.6,23,30.04,10.0,ESE,10.4,-,N/A,,Clear,120,2014-03-19 05:15:00
10:35 PM,42.8,6.8,23,30.04,10.0,East,9.2,-,N/A,,Clear,100,2014-03-19 05:35:00
10:55 PM,44.6,6.8,21,30.04,10.0,East,9.2,-,N/A,,Clear,100,2014-03-19 05:55:00
11:15 PM,44.6,6.8,21,30.05,10.0,ESE,8.1,-,N/A,,Clear,110,2014-03-19 06:15:00
11:35 PM,44.6,6.8,21,30.05,10.0,SE,8.1,-,N/A,,Clear,140,2014-03-19 06:35:00
11:55 PM,41.0,6.8,24,30.06,10.0,ESE,6.9,-,N/A,,Clear,120,2014-03-19 06:55:00